Rexburg, ID

8:03 PM MDT on June 25, 2017 (GMT -0600)
Rexburg-Madison County

Weather History for KRXE - November, 2012

Change the Weather History Date:

Thursday, November 1, 2012

  Actual Average Record
Temperature  
Mean Temperature 46 °F 38 °F  
Max Temperature 56 °F 50 °F 70 °F (2014)
Min Temperature 35 °F 27 °F 1 °F (2002)
Degree Days  
Heating Degree Days 19 27  
Month to date heating degree days 19 27  
Since 1 July heating degree days 833 1014  
Cooling Degree Days 0 0  
Month to date cooling degree days 0 0  
Year to date cooling degree days 419 208  
Moisture  
Dew Point 33 °F    
Average Humidity 65    
Maximum Humidity 89    
Minimum Humidity 41    
Precipitation  
Precipitation 0.00 in 0.04 in 0.30 in (1986)
Month to date precipitation 0.00 0.04  
Year to date precipitation 8.04 11.03  
Sea Level Pressure  
Sea Level Pressure 29.95 in    
Wind  
Wind Speed 10 mph (SSW)    
Max Wind Speed 23 mph    
Max Gust Speed 30 mph    
Visibility 10 miles    
Events      
T = Trace of Precipitation, MM = Missing Value Source: NWS Daily Summary

Daily Weather History Graph

Daily Weather History Graph

Search for Another Location

Airport or City:

Trip Planner

Search our weather history database for the weather conditions in past years. The results will help you decide how hot, cold, wet, or windy it might be!

Date:

Astronomy

Nov. 01, 2012 Rise Set
Actual Time 8:04 AM MDT 6:16 PM MDT
Civil Twilight 7:34 AM MDT 6:46 PM MDT
Nautical Twilight 7:00 AM MDT 7:20 PM MDT
Astronomical Twilight 6:26 AM MDT 7:54 PM MDT
Moon 8:12 PM MDT (11/1) 10:44 AM MDT (11/1)
Length of Visible Light 11h 12m
Length of Day
10h 12m
Waning Gibbous, 92% of the Moon is Illuminated
Nov 1
Waning Gibbous
Nov 6
Last Quarter
Nov 13
New
Nov 20
First Quarter
Nov 28
Full

Hourly Weather History & Observations

Time (MDT) Temp. Windchill Dew Point Humidity Pressure Visibility Wind Dir Wind Speed Gust Speed Precip Events Conditions
12:53 AM 39.0 °F - 33.1 °F 79% 29.92 in 10.0 mi Calm Calm - N/A   Clear
1:53 AM 36.0 °F 33.3 °F 32.0 °F 86% 29.91 in 10.0 mi North 3.5 mph - N/A   Clear
2:53 AM 37.9 °F 32.7 °F 30.9 °F 76% 29.90 in 10.0 mi NNE 6.9 mph - N/A   Clear
3:53 AM 37.9 °F 35.5 °F 30.9 °F 76% 29.89 in 10.0 mi East 3.5 mph - N/A   Clear
4:53 AM 36.0 °F 32.1 °F 30.9 °F 82% 29.88 in 10.0 mi ENE 4.6 mph - N/A   Clear
7:53 AM 39.9 °F 36.7 °F 32.0 °F 73% 29.92 in 10.0 mi SSW 4.6 mph - N/A   Clear
8:53 AM 46.0 °F 41.9 °F 30.9 °F 56% 29.93 in 10.0 mi SSW 8.1 mph - N/A   Clear
9:53 AM 50.0 °F - 33.1 °F 52% 29.94 in 10.0 mi SW 11.5 mph - N/A   Clear
12:53 PM 55.0 °F - 32.0 °F 42% 29.95 in 10.0 mi SSW 17.3 mph 25.3 mph N/A   Mostly Cloudy
1:53 PM 54.0 °F - 33.1 °F 45% 29.96 in 10.0 mi SSW 17.3 mph 24.2 mph N/A   Mostly Cloudy
2:53 PM 53.1 °F - 35.1 °F 50% 29.96 in 10.0 mi SSW 18.4 mph 26.5 mph N/A   Overcast
3:53 PM 52.0 °F - 34.0 °F 50% 29.97 in 10.0 mi SSW 16.1 mph 24.2 mph N/A   Overcast
4:53 PM 51.1 °F - 35.1 °F 54% 29.97 in 10.0 mi SSW 13.8 mph 24.2 mph N/A   Partly Cloudy
5:53 PM 50.0 °F - 35.1 °F 57% 29.99 in 10.0 mi SSW 16.1 mph - N/A   Clear
6:53 PM 48.0 °F - 35.1 °F 61% 29.99 in 10.0 mi South 12.7 mph - N/A   Clear
7:53 PM 45.0 °F 39.7 °F 35.1 °F 68% 29.99 in 10.0 mi South 10.4 mph - N/A   Clear
8:53 PM 44.1 °F 37.4 °F 34.0 °F 68% 29.99 in 10.0 mi South 13.8 mph - N/A   Clear
9:53 PM 44.1 °F 39.5 °F 34.0 °F 68% 29.99 in 10.0 mi SSW 8.1 mph - N/A   Clear
10:53 PM 43.0 °F 39.5 °F 34.0 °F 71% 30.01 in 10.0 mi SSW 5.8 mph - N/A   Clear
11:53 PM 41.0 °F 35.8 °F 33.1 °F 73% 30.01 in 10.0 mi SSW 8.1 mph - N/A   Clear